Wind_Speed
46 49 53 57 61 64 66 68 70 72 75 78 80 82 84 85 86 87 87 86 85 84 84 84 84 85 85 85 84 85 85 86 87 88 89 90 90 91 91 91 92 92 93 93 93 94 94 95 96 96 97 98 99 100 101 102 102 103 103 104 104 104 104 104 104 104 104 104 104 104 104 104 104 104 104 103 102 101 101 102 102 103 102 102 102 103 103 103
37 40 43 47 51 54 57 59 61 62 63 65 67 68 70 73 75 77 79 80 81 82 82 83 83 83 83 83 83 83 83 84 85 86 87 88 89 89 90 91 91 92 92 93 93 94 94 95 95 96 97 98 99 100 100 101 101 101 101 101 100 99 99 98 97 96 96 96 96 97 97 97 97 97 98 99 99 98 98 99 100 101 102 102 103 103 103 103
31 33 35 38 41 44 47 50 52 54 55 56 57 58 59 60 62 64 66 69 71 72 74 75 76 77 77 77 77 77 77 77 78 79 80 81 82 83 84 85 86 87 87 88 89 89 90 90 90 91 91 91 92 92 92 93 92 92 91 90 90 89 88 87 87 87 87 87 88 89 90 90 91 91 92 94 94 95 95 96 96 97 99 100 101 101 101 101
27 27 29 31 33 35 38 41 43 46 48 49 50 51 51 52 53 54 55 57 58 59 61 62 64 65 66 67 68 68 69 69 70 72 73 74 74 75 75 76 77 77 77 78 79 79 79 79 80 80 80 80 80 81 81 81 81 81 80 80 80 80 80 80 80 80 80 81 81 83 84 85 85 86 87 88 89 90 92 92 93 94 95 96 98 99 99 99
25 24 24 25 27 29 31 33 36 38 40 42 44 45 46 47 47 47 48 48 49 49 50 51 52 53 54 56 57 59 59 60 62 63 63 63 64 64 64 64 65 65 66 67 67 67 68 68 69 69 69 70 71 71 71 73 73 73 74 74 74 75 75 76 76 76 77 77 78 79 80 81 82 83 83 84 85 86 88 89 90 90 92 93 94 95 95 96
23 23 22 22 23 23 25 26 28 30 32 34 36 37 38 39 40 41 41 41 42 42 43 44 44 45 46 47 48 49 49 49 50 51 51 51 52 53 53 53 54 55 56 56 57 58 59 59 60 60 61 62 63 63 64 65 66 66 67 68 69 70 70 71 71 72 73 73 74 75 76 77 78 79 80 81 82 83 84 85 87 88 89 90 91 92 93 94
22 22 22 21 21 21 21 21 22 23 24 25 27 28 29 30 31 32 33 33 34 35 35 36 37 37 38 39 39 38 39 40 40 40 41 42 43 43 44 45 45 46 47 48 49 49 50 51 51 52 53 54 55 56 56 57 58 59 60 61 62 63 64 65 66 66 67 68 69 70 72 73 74 75 77 78 78 79 81 82 83 84 85 87 88 89 91 92
19 19 19 19 19 19 19 19 18 18 19 19 20 21 21 22 23 24 24 24 25 26 26 27 28 28 29 29 29 29 30 31 31 32 32 33 34 35 36 36 37 38 39 40 41 42 43 43 44 45 46 46 47 47 48 48 49 50 51 52 53 54 55 57 58 59 60 61 62 64 66 67 69 70 72 73 74 75 77 78 79 81 82 83 84 85 87 89
14 15 15 16 17 17 17 17 17 17 17 16 16 16 17 17 17 17 17 18 18 19 19 20 21 21 21 21 21 21 22 23 24 25 25 26 26 27 28 28 29 30 31 31 32 32 32 32 33 33 34 34 35 35 35 36 37 38 39 40 41 42 43 45 46 47 48 49 51 52 55 57 59 61 63 65 67 68 70 72 74 75 76 77 79 80 82 84
12 11 11 11 12 12 12 12 13 13 12 12 12 12 13 13 13 13 13 14 14 14 15 15 15 15 15 15 15 15 15 16 16 16 16 16 15 15 16 16 16 17 17 18 18 19 19 20 20 21 22 24 25 26 27 28 29 30 31 32 34 36 37 38 40 41 42 43 44 46 47 49 50 53 55 57 58 60 61 63 65 66 68 70 71 73 75 77
16 14 13 12 11 10 9 9 8 7 7 7 7 7 8 8 8 8 8 7 7 7 7 6 7 7 7 8 8 5 5 6 7 6 6 6 8 9 9 9 10 12 14 15 15 15 16 16 17 18 19 20 22 22 23 24 25 26 27 27 28 29 31 33 34 35 36 38 39 40 42 44 45 47 50 52 54 55 56 58 59 60 61 63 65 66 68 70
29 26 24 22 20 18 16 15 14 13 11 10 9 7 6 5 4 4 4 5 6 7 9 8 8 8 3 2 7 10 11 10 10 11 13 14 14 14 14 15 16 16 17 17 18 19 20 21 22 24 25 26 28 28 28 29 30 32 33 34 34 35 36 37 38 37 38 38 38 38 38 38 39 41 43 46 48 50 51 53 54 56 57 59 60 62 63 65
43 41 39 37 35 34 32 30 29 27 26 24 23 21 20 19 18 19 19 20 22 21 21 19 17 13 10 16 22 19 16 16 18 20 19 18 18 19 19 19 20 20 21 23 24 25 26 27 28 29 30 32 34 34 34 36 37 39 40 41 42 42 43 44 45 46 47 47 47 47 46 44 43 44 44 44 45 46 47 48 49 50 52 53 55 57 58 59
54 52 51 50 49 47 45 43 42 40 39 37 35 35 34 33 33 32 31 30 28 25 22 19 18 18 21 28 27 21 21 23 24 24 22 23 23 23 23 23 24 25 25 26 27 26 27 29 28 28 30 32 33 34 35 36 36 37 37 38 39 40 41 42 43 44 45 47 47 49 50 50 50 50 50 49 49 49 49 49 49 49 50 51 52 53 53 54
60 58 57 56 55 53 51 50 49 48 47 46 45 44 43 41 38 34 32 28 25 23 22 24 28 31 34 33 27 27 29 27 27 26 25 25 24 24 24 25 26 26 26 25 25 24 25 26 25 26 28 29 30 31 32 33 33 34 35 35 35 36 37 38 39 38 39 40 42 44 46 48 50 51 51 51 52 52 52 53 53 52 53 53 54 55 55 54
61 60 59 57 56 56 55 54 54 53 52 51 49 46 43 39 35 31 29 27 27 29 30 34 38 40 39 34 30 31 29 27 27 26 26 25 24 26 27 28 28 27 27 26 25 26 26 26 27 29 29 27 27 28 30 33 35 37 38 38 38 38 38 38 39 39 38 37 37 38 40 42 45 47 48 50 51 51 52 53 54 54 55 55 56 57 57 57
61 59 58 57 57 57 57 56 54 53 51 49 47 44 40 37 35 33 32 32 34 36 37 40 42 43 40 33 30 30 29 29 28 27 28 28 29 31 32 32 31 31 31 30 31 31 32 33 35 35 33 33 35 37 40 42 42 42 43 43 43 43 44 43 43 43 43 42 41 38 37 38 39 40 43 45 47 48 50 51 52 53 54 55 56 57 57 57
61 59 58 58 57 56 56 54 53 51 49 47 45 43 41 39 37 36 36 36 38 39 40 41 43 43 37 31 31 32 32 32 31 31 33 33 34 36 37 35 35 36 36 35 36 37 38 39 38 38 40 44 46 47 48 47 47 47 48 48 48 48 49 49 49 49 48 47 46 45 42 41 39 37 37 37 40 42 44 47 49 50 52 53 54 55 56 55
60 59 58 57 56 55 54 53 51 50 48 46 44 42 42 40 39 39 39 38 40 42 42 41 42 41 35 33 35 35 35 35 35 37 37 37 39 40 39 39 40 39 38 39 41 42 43 41 41 45 48 49 49 49 49 49 50 51 51 52 52 53 54 53 53 53 53 53 52 51 50 47 45 42 40 36 35 35 37 40 42 45 47 49 50 51 51 51
58 57 56 55 54 53 52 51 50 48 47 46 45 43 43 41 42 42 39 40 42 43 42 41 42 40 37 37 37 37 38 38 39 40 41 42 43 43 43 43 43 41 42 44 46 46 45 45 48 51 50 49 49 49 51 52 53 54 55 56 56 57 58 57 57 57 57 57 57 57 55 53 51 48 46 43 39 36 34 35 36 38 41 43 45 46 46 47
56 55 54 53 52 52 51 50 50 48 47 47 46 45 44 44 44 42 40 42 44 43 43 43 42 40 39 39 38 39 41 41 42 44 45 46 47 46 46 45 45 45 47 49 49 48 47 50 53 52 51 52 52 53 55 56 58 59 60 60 61 61 61 61 61 61 61 60 60 61 60 59 57 55 52 49 46 43 39 36 35 35 36 38 40 42 42 43
56 54 53 52 51 50 50 49 49 49 48 49 48 46 46 45 44 42 42 44 44 43 44 44 43 41 41 40 40 42 43 43 44 46 47 48 47 47 47 47 48 49 50 50 49 50 51 53 53 52 54 55 56 57 58 60 62 63 63 63 63 63 64 64 64 64 64 64 64 65 64 64 63 61 59 56 53 50 47 43 39 36 35 36 38 39 40 40
62 59 57 54 52 51 51 51 51 51 50 50 48 46 46 45 44 45 45 45 44 44 44 43 43 42 42 42 42 44 45 45 46 47 47 48 48 48 49 50 51 51 51 51 52 52 53 53 52 53 54 55 56 58 59 61 63 64 64 64 65 65 66 67 66 66 67 68 68 68 68 67 67 66 64 62 60 56 53 50 47 43 39 37 37 39 39 39
65 64 62 60 58 57 56 56 55 54 53 51 49 48 47 46 46 46 45 44 43 43 43 43 42 43 43 44 45 46 46 46 47 47 47 47 48 48 49 50 50 50 51 51 51 51 51 51 51 52 53 54 56 57 59 61 62 63 64 65 66 67 68 69 68 69 69 70 70 70 70 69 69 68 68 67 65 62 59 56 53 49 46 42 40 40 41 41
63 62 61 60 59 57 56 56 55 55 54 52 51 49 48 47 46 45 44 44 43 41 40 41 41 42 43 44 45 46 46 46 46 46 46 46 46 47 48 49 49 49 49 49 48 48 48 49 49 50 51 53 54 56 58 60 61 63 64 66 67 68 69 70 70 71 71 71 71 70 70 70 70 70 69 69 68 67 65 62 59 55 51 48 45 42 42 42
58 58 57 56 55 54 53 53 52 52 51 50 49 49 48 47 46 45 44 44 44 42 41 40 40 41 41 42 43 43 43 43 44 45 44 44 45 46 47 47 47 47 47 47 47 47 47 47 48 48 50 51 53 55 58 59 60 62 64 66 68 69 69 70 71 71 72 71 71 71 70 70 71 71 71 71 70 70 68 66 64 61 57 54 50 47 44 43
54 53 52 52 51 50 50 50 49 48 48 47 46 46 45 45 44 43 43 43 42 42 42 41 40 40 40 41 41 42 42 42 42 42 42 42 42 43 44 45 45 45 45 45 46 46 46 47 47 48 50 52 54 55 56 57 59 61 64 66 67 68 69 70 71 71 71 72 72 72 72 72 72 72 73 72 72 72 71 70 69 66 64 60 56 52 49 46
49 49 48 48 47 47 46 46 46 45 44 43 43 43 42 42 41 40 40 40 39 40 41 40 40 39 39 40 40 40 39 39 39 39 40 40 39 40 41 41 42 43 43 44 45 45 46 46 48 49 51 52 53 54 56 58 60 62 65 66 67 68 69 70 71 71 71 71 71 71 72 73 73 74 74 74 74 74 74 73 72 70 68 65 62 58 54 51
45 45 44 44 44 43 43 43 42 42 41 40 40 39 39 39 39 39 39 38 37 37 37 37 38 37 37 37 37 36 35 36 36 36 37 37 36 37 38 38 39 40 42 43 43 44 45 46 48 50 51 51 52 54 56 58 61 64 66 68 69 70 70 71 71 71 71 70 70 70 71 72 73 75 75 75 76 76 75 75 74 73 71 69 67 64 60 56
42 42 41 40 40 40 40 39 39 38 38 37 37 36 37 37 37 37 37 35 35 35 35 35 35 35 35 34 33 33 33 33 34 34 35 35 35 35 34 35 37 39 40 41 42 43 45 46 47 49 50 51 52 53 55 58 61 64 67 69 70 71 72 71 71 70 70 70 70 70 71 72 73 74 75 76 76 77 77 77 77 75 73 72 70 68 65 61
39 39 38 38 37 37 37 36 35 35 34 34 34 33 33 33 33 34 33 32 33 32 32 32 32 32 32 31 31 31 32 32 32 32 32 32 32 31 31 34 36 38 39 40 41 42 43 44 46 48 49 51 51 52 55 57 60 62 65 69 71 72 72 72 70 69 69 70 71 71 72 71 72 73 75 76 76 77 77 77 77 76 75 74 73 71 69 66
35 35 35 35 34 34 34 33 33 32 31 31 31 30 30 30 29 29 28 29 29 28 28 28 28 28 27 28 28 29 29 29 30 30 30 31 31 31 33 35 36 37 38 39 39 40 41 43 44 46 48 50 50 51 54 56 58 61 63 66 68 70 71 71 70 70 71 71 72 72 71 71 71 72 73 75 75 76 76 76 76 76 77 77 75 74 72 70
31 32 32 32 31 31 31 30 30 30 29 29 28 28 27 26 25 25 25 25 24 24 24 24 24 24 24 25 25 26 26 27 28 29 30 31 32 32 33 34 34 34 35 36 37 39 40 42 43 44 46 47 47 48 50 53 56 58 60 63 66 69 71 72 72 73 73 73 72 72 71 71 71 71 71 72 74 75 76 76 77 78 78 77 76 75 74 73
28 28 29 29 29 29 29 28 28 28 27 27 27 26 25 24 23 22 22 21 20 20 20 20 20 21 22 22 23 24 25 25 26 27 28 29 29 30 31 32 33 33 34 34 35 36 37 39 40 41 43 45 44 45 48 51 54 57 59 62 66 69 73 74 75 76 76 75 73 72 71 70 69 70 70 71 73 75 76 78 78 79 79 78 77 76 75 74
25 25 26 26 27 27 27 27 27 26 26 25 25 24 23 22 22 21 20 19 19 18 18 17 18 18 19 20 21 22 23 24 25 26 27 28 28 29 30 31 32 33 34 34 33 33 33 36 38 40 41 43 43 44 47 50 53 57 59 61 63 67 72 75 76 77 77 77 76 74 72 70 69 69 70 71 74 76 77 79 80 80 79 79 79 78 76 75
22 22 23 23 24 25 25 25 25 25 25 24 24 23 22 21 20 19 19 18 18 18 17 17 18 18 18 18 19 20 21 23 24 26 26 27 28 29 30 30 31 32 34 34 33 32 32 34 37 39 41 42 42 43 45 48 52 56 58 59 61 64 68 72 74 77 77 78 78 77 74 71 70 69 70 72 74 76 78 79 79 80 80 80 80 80 79 77
20 20 20 21 22 22 23 23 23 23 23 23 23 23 22 21 20 19 18 18 18 18 17 18 18 18 18 18 18 19 20 21 22 24 25 27 27 28 29 30 31 31 33 33 32 32 33 34 36 39 40 40 41 42 43 47 51 54 57 58 60 62 65 67 70 73 76 78 79 78 76 73 71 70 71 72 74 75 76 77 78 79 79 80 80 80 79 78
19 19 19 19 20 21 21 21 21 21 21 21 21 21 21 20 20 19 18 18 18 18 18 18 18 18 18 18 19 19 20 20 21 23 25 26 28 29 29 30 30 31 33 34 33 33 33 34 36 38 39 39 40 41 42 45 50 53 56 58 59 60 62 64 67 70 74 76 78 79 78 75 73 71 71 72 73 74 75 75 76 77 78 79 80 80 79 79
18 19 19 19 19 19 20 20 20 20 19 19 19 19 19 18 18 18 18 18 19 19 20 20 19 19 19 19 19 19 20 21 22 23 24 26 28 29 30 31 31 31 33 34 35 34 34 34 35 36 37 37 38 39 41 44 48 52 55 57 58 59 60 62 65 68 71 74 76 77 77 77 75 73 71 71 72 74 74 75 75 75 77 78 79 80 80 79
17 17 18 18 18 18 18 19 19 19 18 18 18 17 17 17 17 17 17 18 18 19 20 20 20 20 20 20 20 21 21 22 23 24 25 26 27 29 31 31 31 32 34 35 36 36 35 35 35 36 37 36 36 38 40 42 46 49 53 55 57 58 59 61 63 66 68 71 73 75 76 77 77 75 73 72 72 74 74 75 75 75 75 76 78 79 79 79
14 15 16 17 17 17 18 18 18 17 17 17 17 17 16 16 17 17 17 17 18 18 19 19 20 20 21 22 22 23 23 24 25 25 25 26 27 29 30 31 31 32 34 36 37 38 37 36 36 36 37 36 35 36 38 40 44 47 51 53 55 56 58 59 61 63 66 68 70 72 74 76 77 77 75 73 72 73 74 75 75 75 75 76 76 77 78 79
12 13 14 15 15 16 17 17 17 17 17 16 16 16 16 16 16 16 17 17 18 18 18 19 19 20 21 22 23 23 24 24 26 26 26 26 27 28 29 30 31 32 34 35 37 38 37 37 36 35 35 34 32 34 37 40 42 45 48 51 53 55 56 58 60 62 63 66 68 70 71 74 76 77 77 75 73 73 74 74 75 75 75 75 75 75 76 77
10 11 12 13 14 15 16 16 17 17 16 16 15 16 16 17 17 17 17 18 18 19 19 19 20 21 22 23 23 24 25 25 26 27 27 27 27 27 29 30 32 33 34 35 36 37 37 36 36 35 35 34 32 33 36 39 41 44 46 49 51 53 55 57 59 60 62 63 65 67 69 72 74 76 77 77 75 73 72 73 74 75 75 75 75 75 74 75
11 12 13 13 14 15 15 16 16 16 17 17 16 16 16 17 17 18 18 19 20 21 21 21 22 22 23 24 25 25 26 26 26 27 27 27 27 28 29 31 33 34 36 36 36 36 35 35 34 34 34 34 34 34 35 38 40 43 46 47 49 51 53 55 57 59 60 61 63 65 68 70 73 74 76 77 77 75 74 73 74 74 75 76 76 75 74 74
12 13 14 15 15 15 16 16 16 16 17 17 17 18 18 17 18 18 19 20 21 22 23 24 24 24 25 26 26 27 27 27 27 27 27 27 27 29 30 32 34 36 37 37 37 37 36 35 34 33 31 32 34 34 35 37 40 43 45 47 48 50 52 54 56 58 59 60 62 64 67 69 71 73 74 75 76 77 76 75 74 74 75 77 77 77 76 75
14 15 16 17 17 18 17 17 17 16 17 17 18 19 19 19 19 19 19 20 22 23 24 25 26 27 28 28 28 28 28 28 27 27 27 27 27 29 31 32 34 36 37 38 38 38 38 37 37 35 33 34 36 38 39 40 42 44 46 47 48 49 51 53 55 57 59 60 61 62 65 67 69 72 73 73 74 75 76 76 76 75 76 77 78 79 79 77
17 17 18 19 20 20 20 20 19 18 18 18 18 19 19 20 20 21 21 21 21 22 24 25 27 28 30 30 31 30 30 29 29 28 27 27 28 29 30 32 34 35 36 38 39 40 40 39 39 39 37 36 38 41 43 43 43 46 47 48 49 50 51 53 55 57 58 60 61 62 63 65 67 69 70 71 71 71 73 75 77 77 77 78 79 79 80 79
21 21 21 21 22 23 23 23 23 21 20 19 20 20 20 20 21 21 22 22 23 23 24 25 27 29 30 31 32 33 32 32 31 30 29 29 29 30 31 32 33 34 36 37 40 41 42 42 42 43 42 40 39 41 44 45 45 46 48 50 50 51 52 53 54 56 58 59 60 61 62 63 65 67 68 69 69 69 70 72 75 76 77 78 79 80 80 80
24 24 24 24 24 25 25 25 25 24 23 22 21 21 21 21 22 22 23 24 25 25 26 26 27 29 31 32 32 33 34 34 34 34 32 31 31 32 32 33 33 34 35 36 39 41 42 43 44 45 46 46 44 43 45 47 47 46 48 50 51 51 52 53 54 56 58 59 60 61 62 62 63 65 67 67 68 68 69 70 72 75 77 78 78 79 80 80
26 26 26 26 26 26 26 26 26 26 25 25 24 23 22 22 23 24 25 25 26 27 28 28 28 30 31 32 33 33 33 34 35 36 35 34 34 34 34 35 35 35 35 36 37 40 42 43 44 46 48 50 50 48 46 48 49 49 49 50 51 52 52 53 55 56 57 58 60 61 61 62 62 64 65 66 66 67 68 69 70 72 75 77 78 78 79 80
30 30 29 29 29 29 28 28 28 28 28 28 28 27 26 26 26 27 27 27 28 29 30 30 30 31 31 32 33 33 33 33 35 36 36 35 35 35 36 36 37 37 37 37 38 39 41 42 44 47 49 50 52 52 50 49 51 51 50 50 51 52 52 53 55 56 56 58 59 61 61 61 62 63 64 65 66 66 67 69 70 72 74 76 78 78 79 80
32 32 33 33 33 32 31 31 31 30 30 31 31 30 30 30 30 30 30 30 30 30 31 31 31 32 32 33 33 34 33 33 34 36 36 36 36 37 37 37 37 37 37 38 39 39 40 41 43 46 48 49 51 54 53 51 51 53 52 50 50 52 53 53 55 56 57 57 59 61 61 61 62 63 64 65 65 66 67 69 70 72 74 76 77 79 79 80
Wind_Direction
232 234 235 236 237 238 239 241 242 243 244 246 247 248 249 250 251 252 253 253 254 254 254 255 255 256 257 257 258 258 259 260 261 261 262 263 263 264 264 264 265 265 266 266 267 267 267 268 268 269 269 269 269 270 270 270 270 270 271 271 272 272 272 273 273 273 273 273 273 273 273 273 273 273 273 273 272 272 272 272 272 271 271 270 270 269 269 269
229 231 232 234 235 237 238 240 241 243 244 246 247 248 249 250 251 252 252 253 254 255 255 256 257 258 259 260 261 261 262 262 263 263 264 264 265 265 266 266 266 266 267 267 268 268 268 268 269 269 269 270 270 270 271 271 271 272 272 273 273 273 273 273 273 273 273 273 273 273 273 273 273 273 273 273 272 272 271 271 270 270 270 270 269 269 268 268
226 227 229 231 233 235 237 238 240 242 244 245 247 248 249 250 251 252 253 254 254 255 256 257 258 259 260 261 262 263 263 264 264 265 265 265 266 267 267 267 268 268 268 269 269 269 270 270 270 271 271 271 271 271 272 272 273 273 273 274 274 274 274 274 274 274 274 274 274 274 274 274 274 274 273 273 273 273 272 271 271 270 270 269 269 269 268 268
223 225 226 228 230 233 235 237 238 240 242 244 246 247 249 250 251 252 253 254 255 256 257 258 258 259 260 261 262 263 263 264 264 265 266 267 267 268 268 269 269 270 270 270 271 271 271 272 272 272 273 273 273 273 273 274 274 274 274 274 274 274 274 274 274 274 274 274 274 274 274 274 274 273 273 273 273 272 272 272 271 270 270 269 269 269 269 268
223 224 225 226 229 231 233 235 237 238 240 242 244 246 248 249 251 252 254 255 256 256 257 258 258 259 260 260 261 262 263 264 265 266 268 269 269 269 270 270 271 271 271 272 272 272 272 273 273 273 273 273 274 274 275 275 275 275 275 275 275 275 274 274 274 273 273 273 272 272 272 272 272 271 271 271 270 270 270 270 270 270 270 269 269 269 269 268
223 224 225 226 227 229 231 233 235 237 239 241 243 245 246 248 250 251 253 254 255 255 256 257 258 259 260 261 262 264 265 267 268 269 270 270 270 271 271 271 272 272 272 272 273 273 273 273 273 273 273 274 274 274 274 275 275 276 276 276 276 276 276 275 275 275 274 274 273 273 272 272 272 271 271 270 270 269 269 269 269 269 268 268 268 268 268 267
220 222 224 226 227 229 231 233 236 238 240 241 243 244 245 247 248 250 251 252 254 255 257 258 259 260 262 263 265 267 268 269 269 270 270 271 272 272 273 273 273 273 273 273 274 274 274 274 274 274 275 275 275 276 276 277 277 277 277 277 278 278 278 277 277 277 276 276 275 275 274 274 273 273 272 272 271 270 270 269 269 268 268 268 267 267 267 267
214 218 221 223 226 228 230 233 235 236 238 239 241 242 244 246 247 249 251 253 255 256 258 259 261 262 263 265 266 268 269 270 271 272 273 274 274 274 275 275 275 275 275 275 275 276 277 277 278 278 279 279 280 280 281 281 281 281 281 281 281 281 280 280 280 280 279 278 278 277 277 276 275 275 274 274 273 272 272 271 270 270 269 269 268 267 267 266
197 204 210 214 218 221 225 228 231 234 236 239 240 242 244 246 248 251 253 255 256 257 259 260 262 264 266 268 269 271 273 275 276 278 278 278 278 278 278 278 278 279 279 280 280 281 283 284 285 286 288 289 290 291 291 291 292 292 292 291 291 290 289 288 288 286 285 284 282 281 280 279 278 277 276 275 275 274 273 273 272 272 271 271 270 269 268 267
160 170 179 187 196 202 209 215 220 226 229 233 237 240 244 246 248 250 252 254 257 261 263 266 270 272 271 272 272 274 280 284 289 290 287 287 289 291 292 292 293 296 299 300 302 304 305 307 309 312 314 316 316 316 315 313 312 312 311 309 307 305 303 302 300 299 297 295 293 291 289 287 285 284 283 281 280 278 277 276 275 274 273 272 272 271 270 269
120 127 133 139 147 154 162 168 176 183 191 201 211 221 228 234 239 243 249 253 259 263 271 277 276 279 282 271 260 276 322 330 330 328 337 355 357 354 351 352 354 353 351 349 347 346 346 347 349 350 351 348 346 344 340 335 333 332 331 329 324 320 317 314 311 308 306 303 300 297 295 293 291 289 287 287 286 284 283 282 281 280 279 277 276 275 274 272
101 104 106 108 111 113 115 117 119 121 121 121 122 125 122 121 127 124 132 126 110 97 82 75 73 68 55 110 96 71 52 46 44 46 45 40 34 30 30 30 28 23 20 17 16 17 16 16 16 13 10 7 5 2 358 354 353 352 351 350 347 344 340 337 334 331 328 323 319 315 310 305 301 297 294 291 290 288 287 286 285 284 283 282 281 280 279 278
91 93 94 95 96 97 97 97 97 97 97 97 96 96 96 97 98 97 97 94 88 80 73 69 68 77 95 85 75 66 58 56 55 54 51 47 45 43 44 43 41 38 36 33 31 29 25 23 19 13 10 9 5 1 359 359 358 357 355 352 350 348 345 342 339 337 335 332 328 326 323 320 317 313 308 304 301 298 295 293 291 289 287 286 285 283 282 281
86 87 88 88 88 88 89 89 90 90 91 92 91 91 91 89 86 81 78 76 74 71 71 75 81 91 89 76 71 71 67 62 60 59 58 56 54 52 52 51 48 44 41 37 34 31 26 22 18 12 11 9 2 360 1 360 358 357 355 352 350 347 344 341 337 334 331 328 325 324 322 321 320 317 314 311 309 307 305 303 301 299 297 295 293 291 290 288
81 82 82 83 84 85 86 87 87 87 87 86 83 81 78 76 74 71 70 72 77 83 88 90 87 83 79 76 75 74 68 65 64 63 60 59 58 58 57 55 52 48 46 41 36 35 32 27 23 20 19 14 7 7 7 6 6 7 6 3 0 356 352 349 346 342 337 332 327 323 320 317 316 314 312 310 309 308 306 305 304 304 302 301 299 298 297 296
77 78 80 81 82 83 83 82 81 80 80 79 77 76 75 75 76 77 81 85 89 91 90 85 80 76 75 76 74 72 71 70 68 66 66 66 66 66 64 61 58 55 53 48 44 44 41 36 34 33 30 26 24 24 22 21 20 19 17 15 13 11 8 6 3 1 358 353 347 338 329 322 318 314 311 309 307 306 304 303 303 302 301 301 300 299 299 299
76 78 78 79 79 78 78 78 78 78 78 79 80 82 84 86 86 87 89 90 88 87 83 79 78 77 76 76 76 77 77 75 73 74 74 73 72 69 67 63 60 57 55 51 48 47 44 41 38 35 32 30 30 29 27 26 24 22 21 20 18 17 15 14 13 11 10 8 6 1 353 343 333 324 317 312 308 305 303 301 300 300 299 299 298 298 298 299
76 76 77 77 77 78 78 79 80 80 81 82 83 86 88 88 88 87 86 85 84 83 80 78 79 80 81 82 80 80 79 78 78 76 75 72 70 67 64 61 58 55 52 48 47 45 43 42 39 35 32 31 29 27 26 26 25 24 23 21 21 20 19 18 17 15 14 13 13 12 10 4 357 347 336 325 315 308 304 301 299 298 297 297 297 297 297 297
75 76 77 77 78 79 79 80 81 81 82 83 83 84 85 85 85 83 82 82 82 81 80 80 81 84 85 84 81 81 80 79 76 74 72 69 67 65 62 59 56 54 51 48 47 45 43 42 40 38 36 34 31 29 28 27 27 27 26 25 23 22 22 21 20 18 17 16 16 16 15 13 10 5 360 350 337 324 314 307 302 299 298 297 297 297 298 299
76 77 78 79 80 80 81 81 82 81 82 83 82 82 83 83 83 82 82 81 80 81 83 83 84 85 85 83 82 81 79 76 73 71 69 66 64 62 59 57 55 53 52 50 48 47 44 43 42 41 40 38 35 32 30 29 28 28 27 27 25 24 23 22 22 21 19 18 18 18 17 17 16 14 11 7 360 349 337 325 315 309 305 303 303 303 304 305
76 77 79 80 80 81 82 82 83 82 82 83 83 82 83 82 83 84 84 82 82 83 84 84 85 85 83 82 80 78 76 73 71 68 66 64 62 60 58 56 55 53 51 50 49 47 45 44 44 42 41 40 38 35 33 32 30 29 28 26 25 24 23 22 22 21 21 20 19 18 18 18 19 18 17 15 11 6 359 348 337 326 318 314 312 312 312 312
76 77 78 79 79 80 81 81 81 81 80 80 81 81 82 82 83 84 82 81 81 81 81 81 81 80 79 78 75 73 72 69 67 65 63 62 61 60 59 57 56 54 53 51 50 48 47 46 45 44 44 43 41 38 36 34 32 30 28 26 25 23 22 22 21 20 20 21 20 19 19 18 18 19 19 19 17 14 10 4 356 346 336 328 323 322 322 321
76 76 77 78 78 78 78 77 77 77 76 77 78 79 79 80 80 78 77 77 76 75 75 75 74 74 72 71 70 69 68 66 65 64 63 63 62 61 60 59 58 57 55 53 52 50 49 48 47 46 44 43 41 38 36 34 32 30 28 26 24 23 22 21 20 19 19 19 20 19 19 18 18 18 19 20 19 18 15 12 8 2 353 343 336 332 332 332
76 76 77 77 77 77 76 75 75 76 76 76 77 77 77 76 76 75 75 75 74 73 73 72 71 70 69 69 68 68 67 67 66 65 64 65 64 62 61 59 58 56 55 54 53 52 50 49 47 44 42 40 38 36 34 33 31 29 27 25 24 23 22 20 19 18 18 18 18 18 18 18 18 18 18 19 20 20 19 17 14 11 5 358 350 344 340 339
75 76 76 77 77 77 76 76 75 75 75 75 75 74 74 74 74 74 74 75 75 76 75 74 72 71 70 69 69 68 68 67 66 64 65 65 63 61 59 57 55 54 53 52 51 50 49 48 45 43 40 38 36 34 32 31 29 28 27 25 24 23 22 20 19 18 17 17 16 16 16 16 17 18 18 18 19 20 20 19 18 16 13 8 2 355 349 345
75 75 76 76 76 76 75 75 74 74 74 74 73 72 72 71 71 70 70 71 73 75 76 75 73 72 72 71 70 69 67 65 63 61 61 62 60 57 56 54 52 51 50 49 48 47 46 45 43 42 40 37 35 33 31 29 28 28 27 26 24 22 21 20 19 18 16 15 15 15 15 15 16 17 17 18 18 19 20 20 20 20 18 15 11 5 359 354
74 75 75 75 75 75 75 75 74 74 74 74 73 73 72 72 71 69 68 69 69 71 74 74 73 73 72 71 70 67 64 62 60 58 58 58 56 55 53 51 49 47 46 46 45 43 43 41 40 39 37 35 33 32 30 29 28 27 26 25 24 22 21 20 19 18 16 15 14 13 13 13 14 15 16 17 17 18 19 20 21 21 20 19 16 12 8 4
73 73 73 74 74 74 74 74 74 74 74 74 73 74 73 73 73 72 71 70 68 68 70 70 70 69 68 67 66 64 62 60 59 57 55 55 54 53 52 49 46 44 43 42 41 40 39 37 36 34 33 32 31 30 29 29 27 27 26 25 23 22 21 19 18 17 16 15 14 12 12 12 13 14 14 15 16 17 18 19 20 21 21 21 20 17 14 10
71 71 71 71 72 72 72 73 73 73 73 73 73 73 73 74 73 73 73 72 70 68 67 66 66 65 64 64 64 62 61 59 58 57 55 54 52 51 49 46 44 42 40 39 38 36 35 33 32 30 30 29 29 29 29 28 27 26 25 24 23 23 22 20 18 17 16 15 14 13 12 12 12 12 13 14 15 16 17 18 19 21 21 21 21 20 18 15
70 70 70 70 70 70 70 71 72 73 73 73 73 72 72 72 72 73 74 74 73 71 69 67 65 64 63 62 61 59 57 55 54 53 53 51 50 48 45 42 41 40 38 36 34 33 31 29 29 28 27 26 27 28 30 29 28 27 26 25 24 23 22 21 20 18 16 15 15 14 13 12 11 12 12 13 14 14 15 16 18 19 20 21 22 22 21 19
70 70 69 69 69 69 69 69 70 72 73 73 73 73 72 72 72 72 73 73 72 71 69 67 66 64 62 61 58 56 53 51 49 48 48 50 51 49 44 40 39 37 35 33 31 30 28 27 26 25 25 24 25 27 30 31 30 28 27 27 25 23 22 21 20 19 18 16 16 15 14 12 12 11 11 12 13 14 15 16 16 17 18 20 21 22 22 22
70 70 69 69 68 68 68 68 69 70 71 72 73 73 74 74 73 73 72 72 71 70 68 67 66 64 62 60 58 55 53 51 49 47 46 46 47 46 43 40 37 33 31 30 28 27 27 26 25 24 23 22 23 25 29 32 32 30 28 27 27 26 24 22 20 19 19 18 17 15 14 13 12 12 12 12 12 14 15 15 16 16 17 18 19 20 21 22
67 67 67 67 66 66 66 66 66 67 68 70 71 72 73 74 74 74 72 71 69 68 67 65 64 63 61 59 57 54 51 49 46 44 42 40 39 38 38 38 37 34 30 27 25 23 23 24 23 23 23 22 22 24 28 32 34 32 29 28 27 27 26 24 22 20 19 19 17 16 14 13 12 12 12 12 13 14 14 15 16 16 17 18 18 19 20 21
61 61 61 61 62 63 63 63 64 64 66 66 68 69 70 71 72 71 71 70 69 67 64 62 60 58 56 55 53 50 48 45 43 41 39 38 36 33 32 32 32 31 29 26 23 22 21 21 22 23 22 22 22 23 26 31 33 33 31 29 27 25 25 25 24 23 21 19 17 16 15 14 13 12 11 12 13 14 14 15 16 16 16 17 18 19 19 19
56 56 56 56 56 57 60 61 62 62 63 64 65 66 67 67 67 67 66 67 66 64 62 59 56 53 50 47 44 42 41 40 39 38 37 35 33 32 31 29 27 26 26 26 24 23 21 20 21 22 22 22 22 22 25 28 30 30 31 30 28 25 24 24 24 24 23 21 18 17 15 14 13 12 12 12 13 14 14 15 15 16 16 16 17 17 18 19
53 52 53 53 54 55 57 60 62 62 62 62 62 63 64 65 65 64 63 62 61 60 58 56 53 50 46 42 39 36 34 34 34 33 32 30 29 28 29 28 26 23 23 25 25 24 22 19 19 20 21 22 22 22 23 26 27 27 28 29 28 27 25 24 23 23 23 22 20 19 17 15 13 12 12 13 14 14 14 15 15 15 16 16 16 17 17 18
53 51 50 50 52 54 56 58 60 61 61 61 60 59 59 60 59 59 57 56 55 54 53 51 50 47 44 41 38 35 32 29 27 26 24 23 22 21 22 23 22 20 20 23 24 23 21 18 17 19 20 21 22 22 22 23 24 25 26 26 27 26 25 25 24 23 22 22 22 21 19 17 14 13 13 14 14 14 15 15 15 16 16 16 17 17 17 17
52 52 50 48 49 50 52 53 54 55 56 58 58 57 55 54 53 51 48 46 44 44 45 45 46 45 42 39 35 33 30 26 23 20 18 17 16 15 15 16 16 16 15 18 20 19 18 17 15 17 19 20 21 22 22 21 21 22 23 24 25 25 24 23 23 23 23 22 22 21 20 18 16 15 14 14 14 14 15 15 16 16 17 17 18 18 17 17
47 49 49 47 46 45 44 44 45 46 47 49 51 53 53 52 49 46 43 40 36 35 35 35 37 39 39 36 31 27 23 21 18 15 12 10 10 9 9 10 11 11 11 12 14 15 14 14 13 15 18 20 20 21 21 20 19 19 20 21 22 22 22 21 21 22 22 22 22 22 21 19 18 16 15 14 14 15 15 15 16 17 18 18 19 19 18 17
38 41 43 43 42 40 37 35 35 35 36 38 42 44 47 47 46 44 42 38 34 31 30 29 28 29 30 29 26 22 17 14 12 10 8 5 3 3 4 5 7 8 7 7 8 10 10 10 10 11 15 19 20 20 20 19 17 17 18 19 20 19 19 19 19 20 21 22 22 22 21 20 19 17 16 14 14 14 14 15 15 16 17 19 19 19 19 18
30 32 32 33 33 33 31 29 27 25 25 27 30 33 37 40 40 40 38 35 33 31 28 27 25 22 21 19 18 15 12 9 8 7 5 2 358 357 359 2 4 5 4 3 3 5 6 7 8 9 11 16 18 18 18 18 16 16 16 16 16 16 17 17 17 17 19 20 21 21 21 20 19 18 17 16 14 14 14 14 14 15 16 18 20 20 20 20
17 19 20 20 21 22 23 23 22 19 17 17 18 20 23 27 29 30 28 27 25 24 23 22 20 18 15 13 12 10 8 6 4 3 3 0 356 354 355 358 0 1 1 0 359 0 2 4 7 8 8 12 16 16 15 16 15 15 14 12 12 13 14 14 15 15 16 18 19 20 19 19 19 19 18 17 16 15 14 14 14 14 15 17 19 20 20 20
355 358 0 2 4 6 9 12 13 12 11 9 8 8 9 11 13 14 15 14 11 11 11 11 12 11 9 8 8 7 5 3 2 2 2 360 356 353 353 354 356 357 357 356 356 357 0 3 4 6 6 8 11 13 12 12 11 10 10 9 9 9 11 11 12 13 14 15 16 17 17 17 18 18 17 17 17 16 15 15 14 14 14 15 16 18 19 20
334 335 339 343 346 349 353 356 359 0 0 0 359 357 357 357 357 357 358 358 358 357 357 358 360 2 2 2 2 2 2 1 359 359 359 358 354 352 351 351 351 352 352 351 352 354 358 2 5 7 7 5 6 8 7 6 5 4 5 6 6 6 8 8 9 10 12 13 13 14 14 15 16 16 16 16 16 16 15 15 14 14 14 14 14 16 17 18
317 320 323 327 331 334 338 342 345 347 348 348 347 347 347 346 345 345 345 345 346 345 346 346 348 350 352 354 354 356 357 357 356 354 354 354 352 350 350 349 348 348 348 348 348 350 353 359 3 6 7 4 1 1 1 360 0 1 1 2 3 3 4 5 6 8 9 11 11 11 12 13 13 14 15 15 15 15 14 14 14 13 13 13 13 13 15 16
305 308 312 316 319 322 325 328 331 334 336 337 338 338 339 338 337 337 337 337 337 337 338 338 339 341 343 345 347 348 350 351 352 351 349 349 348 347 346 346 346 346 346 346 346 347 349 353 357 1 3 3 358 356 357 357 357 358 360 360 0 1 2 3 4 5 7 8 9 10 10 10 11 11 12 14 14 14 13 13 13 12 12 12 12 12 12 14
299 301 304 307 309 312 315 317 319 322 325 327 329 330 332 331 331 331 331 330 330 331 332 332 332 333 335 337 339 341 343 345 346 347 346 344 343 342 342 343 343 343 344 344 344 345 347 349 351 353 356 358 357 353 353 355 355 355 357 358 358 359 360 1 2 3 4 6 7 8 8 8 9 10 10 11 12 13 13 12 12 12 12 11 11 10 10 11
297 299 300 302 304 306 307 309 310 313 315 318 320 323 325 325 325 326 327 326 325 324 325 326 326 327 329 332 334 336 337 338 340 341 342 341 339 338 338 338 339 340 341 342 342 342 344 345 346 347 347 350 353 351 349 350 352 352 353 354 356 356 357 358 360 1 2 3 4 5 6 6 7 7 8 8 9 10 11 11 10 10 10 11 10 10 9 8
297 298 300 300 300 302 303 304 305 306 308 309 311 315 317 318 319 321 322 322 321 321 321 321 322 323 325 327 329 332 333 334 335 336 337 338 337 336 336 335 335 336 336 338 339 339 340 341 342 342 341 342 345 348 347 346 348 350 349 350 352 354 355 356 358 359 359 360 1 2 3 4 5 5 6 6 6 7 8 8 8 8 8 9 9 9 8 7
292 293 294 295 295 297 298 300 301 302 303 304 306 308 310 311 313 315 317 317 317 318 319 320 320 321 323 324 326 328 330 332 332 333 334 334 333 334 334 333 333 333 332 332 334 335 335 337 337 337 337 336 338 343 345 343 344 347 348 348 350 352 354 355 356 356 357 357 358 360 0 1 2 3 4 4 4 5 5 5 5 6 6 6 7 7 7 7
287 288 289 290 291 292 294 296 298 299 300 301 302 303 303 304 307 310 312 313 314 315 316 317 317 318 320 321 322 324 327 329 329 329 330 330 330 330 331 332 332 332 331 330 331 331 330 332 333 333 333 333 333 337 342 343 342 344 347 347 347 349 353 355 354 353 354 354 355 357 358 359 359 0 2 3 2 3 3 3 2 3 4 4 4 4 5 5
288 289 290 291 292 293 294 295 295 297 298 300 301 301 301 301 303 307 310 310 311 312 313 313 313 315 316 318 319 320 323 324 325 325 326 326 325 326 328 329 330 331 331 329 329 330 328 328 329 330 330 330 330 332 337 341 341 342 345 347 346 347 350 353 352 351 351 352 353 355 356 357 357 358 360 1 2 1 1 2 1 1 2 2 2 2 2 3
Height
10669 10672 10675 10678 10681 10685 10688 10692 10696 10699 10702 10705 10709 10712 10715 10718 10721 10723 10726 10728 10730 10733 10735 10737 10740 10742 10743 10744 10745 10746 10747 10748 10749 10749 10750 10750 10751 10751 10752 10752 10752 10752 10752 10752 10752 10752 10752 10752 10751 10751 10751 10750 10749 10748 10748 10748 10748 10747 10747 10746 10745 10744 10743 10742 10741 10739 10737 10734 10731 10730 10729 10728 10727 10725 10724 10725 10726 10725 10724 10722 10721 10721 10721 10722 10721 10722 10722 10722
10666 10669 10672 10675 10678 10682 10686 10689 10693 10696 10699 10702 10705 10708 10711 10714 10716 10718 10721 10723 10725 10728 10731 10733 10735 10737 10738 10739 10740 10741 10742 10742 10743 10743 10743 10744 10744 10745 10745 10745 10745 10746 10746 10745 10745 10745 10745 10745 10745 10744 10744 10743 10741 10740 10739 10739 10739 10738 10738 10737 10736 10735 10733 10732 10730 10728 10726 10724 10721 10718 10718 10718 10717 10716 10714 10712 10712 10713 10713 10713 10711 10709 10708 10708 10708 10709 10710 10710
10664 10667 10670 10673 10676 10680 10683 10687 10690 10693 10696 10699 10702 10705 10707 10710 10712 10714 10716 10719 10722 10725 10727 10729 10731 10732 10733 10734 10735 10735 10736 10736 10737 10737 10737 10738 10739 10739 10739 10739 10739 10739 10739 10739 10738 10738 10738 10738 10737 10737 10736 10735 10733 10733 10732 10730 10730 10729 10728 10727 10725 10724 10723 10722 10720 10719 10717 10715 10712 10709 10706 10707 10706 10706 10704 10702 10701 10700 10700 10700 10700 10699 10696 10695 10694 10696 10698 10699
10662 10665 10668 10671 10675 10678 10681 10684 10688 10691 10694 10696 10699 10702 10704 10706 10708 10711 10713 10716 10719 10721 10724 10725 10727 10728 10728 10729 10729 10729 10730 10731 10731 10731 10732 10733 10734 10734 10734 10733 10733 10733 10733 10732 10732 10731 10730 10730 10730 10729 10728 10726 10725 10724 10723 10721 10720 10719 10718 10717 10715 10714 10713 10711 10710 10708 10707 10706 10703 10699 10696 10696 10696 10695 10693 10692 10691 10689 10688 10687 10687 10687 10685 10684 10683 10683 10684 10686
10662 10665 10668 10671 10674 10677 10680 10682 10685 10688 10691 10694 10696 10699 10701 10703 10706 10708 10711 10713 10715 10718 10719 10721 10722 10723 10723 10723 10723 10724 10727 10727 10727 10728 10729 10729 10729 10729 10729 10728 10727 10727 10726 10725 10725 10724 10723 10723 10722 10721 10720 10719 10717 10716 10715 10713 10712 10711 10709 10708 10706 10704 10703 10701 10700 10699 10698 10696 10694 10691 10688 10686 10685 10684 10682 10681 10681 10679 10677 10676 10675 10674 10673 10672 10672 10672 10672 10673
10662 10665 10667 10670 10673 10676 10678 10681 10684 10687 10689 10692 10694 10697 10699 10701 10704 10706 10708 10710 10712 10713 10715 10716 10717 10718 10718 10719 10720 10722 10723 10724 10724 10725 10725 10723 10723 10723 10723 10722 10722 10721 10720 10720 10719 10718 10717 10716 10716 10715 10713 10712 10711 10710 10709 10707 10706 10704 10702 10700 10698 10696 10694 10692 10691 10690 10688 10687 10685 10682 10679 10677 10675 10673 10671 10671 10670 10668 10666 10664 10663 10662 10661 10660 10659 10660 10660 10660
10662 10664 10667 10670 10673 10676 10678 10681 10683 10686 10688 10691 10693 10695 10697 10699 10701 10703 10705 10707 10708 10710 10711 10712 10713 10715 10715 10716 10718 10719 10720 10720 10720 10720 10719 10719 10718 10718 10718 10717 10716 10716 10715 10714 10713 10712 10712 10711 10710 10709 10708 10707 10706 10705 10704 10702 10700 10699 10696 10694 10692 10690 10687 10685 10684 10682 10680 10679 10676 10673 10670 10668 10666 10663 10661 10660 10659 10658 10656 10654 10652 10651 10651 10649 10648 10648 10647 10647
10662 10664 10667 10670 10673 10676 10678 10680 10683 10685 10687 10689 10691 10693 10695 10697 10699 10701 10703 10704 10706 10707 10708 10709 10710 10711 10712 10714 10715 10716 10716 10716 10716 10716 10716 10715 10715 10714 10714 10713 10712 10711 10711 10710 10709 10708 10707 10707 10706 10705 10704 10703 10702 10701 10700 10698 10695 10693 10691 10689 10686 10684 10682 10679 10677 10675 10673 10671 10669 10666 10663 10660 10658 10655 10652 10651 10649 10648 10645 10643 10642 10641 10640 10639 10638 10637 10636 10635
10662 10665 10667 10670 10673 10675 10677 10680 10682 10684 10686 10688 10690 10692 10694 10696 10698 10699 10701 10702 10704 10705 10706 10707 10708 10709 10710 10711 10712 10713 10713 10713 10713 10713 10712 10712 10711 10710 10710 10709 10709 10708 10707 10707 10706 10705 10705 10704 10703 10702 10701 10699 10698 10697 10695 10693 10691 10689 10686 10684 10681 10679 10676 10674 10671 10669 10667 10665 10663 10660 10657 10654 10651 10648 10644 10642 10641 10639 10637 10634 10632 10631 10629 10628 10627 10626 10624 10623
10662 10665 10667 10670 10672 10675 10677 10679 10681 10684 10686 10688 10690 10691 10693 10695 10696 10698 10699 10701 10702 10703 10704 10705 10706 10707 10708 10709 10710 10710 10710 10710 10710 10709 10709 10708 10708 10707 10707 10706 10706 10705 10705 10704 10704 10703 10702 10702 10701 10700 10698 10696 10695 10693 10691 10689 10687 10685 10683 10681 10678 10675 10672 10669 10667 10664 10661 10659 10656 10653 10650 10648 10645 10641 10637 10634 10633 10631 10628 10626 10624 10622 10620 10618 10617 10615 10613 10612
10663 10666 10668 10670 10673 10675 10677 10679 10681 10683 10685 10687 10689 10691 10693 10694 10695 10697 10698 10699 10701 10702 10702 10703 10704 10705 10705 10706 10707 10708 10709 10708 10708 10708 10707 10707 10707 10706 10706 10705 10705 10704 10704 10703 10703 10702 10701 10700 10700 10699 10697 10696 10694 10692 10690 10688 10686 10684 10681 10679 10676 10673 10670 10667 10664 10661 10658 10655 10652 10649 10645 10642 10640 10636 10631 10628 10625 10623 10620 10617 10615 10613 10611 10609 10607 10605 10603 10601
10666 10668 10670 10672 10674 10676 10678 10680 10682 10684 10686 10688 10689 10691 10693 10694 10695 10697 10698 10699 10700 10701 10702 10703 10703 10704 10705 10705 10706 10708 10709 10709 10709 10708 10707 10707 10707 10707 10706 10706 10705 10705 10705 10704 10703 10702 10701 10700 10699 10697 10696 10694 10692 10690 10688 10686 10683 10680 10677 10674 10671 10668 10664 10661 10657 10654 10651 10648 10644 10641 10639 10636 10633 10630 10626 10623 10619 10616 10613 10610 10608 10606 10603 10600 10598 10595 10593 10591
10669 10671 10673 10675 10677 10678 10680 10682 10684 10685 10687 10689 10690 10692 10694 10695 10696 10698 10698 10699 10700 10701 10703 10704 10705 10706 10707 10706 10706 10709 10711 10710 10710 10709 10709 10709 10709 10708 10708 10707 10707 10706 10706 10704 10703 10702 10700 10699 10697 10696 10694 10691 10689 10687 10685 10682 10679 10676 10673 10670 10666 10663 10659 10656 10652 10648 10644 10640 10636 10632 10629 10626 10623 10621 10618 10615 10612 10609 10606 10603 10601 10599 10596 10593 10589 10587 10585 10582
10675 10676 10677 10679 10680 10682 10683 10685 10687 10688 10690 10691 10693 10694 10696 10697 10697 10699 10699 10700 10702 10704 10706 10708 10709 10709 10706 10706 10710 10712 10713 10712 10711 10712 10712 10711 10711 10711 10710 10709 10708 10707 10706 10705 10703 10702 10701 10699 10697 10696 10693 10690 10689 10687 10684 10681 10679 10676 10674 10670 10666 10662 10659 10656 10652 10648 10643 10638 10633 10628 10623 10619 10616 10612 10609 10606 10603 10600 10597 10595 10592 10590 10587 10584 10581 10577 10575 10572
10680 10681 10682 10683 10685 10687 10688 10690 10691 10692 10693 10694 10695 10696 10697 10698 10699 10701 10703 10705 10707 10709 10711 10712 10712 10709 10705 10709 10715 10714 10714 10715 10715 10715 10715 10714 10714 10713 10712 10710 10709 10708 10707 10706 10706 10704 10702 10701 10700 10698 10695 10693 10691 10688 10685 10684 10682 10679 10676 10673 10669 10665 10661 10657 10653 10649 10644 10639 10633 10628 10622 10617 10612 10608 10604 10600 10597 10593 10590 10587 10584 10581 10578 10575 10572 10568 10565 10563
10686 10687 10689 10690 10692 10692 10693 10694 10694 10695 10696 10696 10697 10698 10700 10702 10705 10708 10710 10713 10714 10714 10715 10714 10711 10709 10709 10714 10717 10716 10718 10719 10719 10718 10717 10718 10717 10715 10713 10712 10711 10710 10709 10709 10709 10707 10706 10705 10703 10700 10699 10698 10696 10693 10691 10688 10684 10681 10678 10674 10671 10667 10663 10659 10654 10649 10645 10640 10634 10628 10622 10616 10611 10605 10601 10596 10592 10589 10585 10582 10579 10575 10572 10569 10565 10561 10558 10554
10693 10694 10696 10697 10697 10697 10697 10698 10698 10699 10700 10701 10702 10704 10707 10710 10713 10716 10717 10718 10718 10717 10717 10715 10713 10711 10713 10719 10722 10721 10722 10722 10722 10722 10721 10720 10719 10717 10715 10715 10715 10713 10713 10713 10712 10710 10709 10706 10703 10703 10703 10700 10697 10693 10690 10686 10684 10682 10679 10675 10672 10668 10664 10660 10655 10650 10645 10640 10635 10629 10623 10616 10610 10605 10599 10594 10589 10585 10582 10578 10574 10571 10567 10563 10560 10556 10552 10548
10701 10702 10702 10703 10703 10703 10703 10704 10705 10706 10707 10709 10711 10713 10715 10718 10720 10721 10722 10722 10721 10720 10719 10718 10716 10715 10721 10727 10726 10725 10725 10725 10726 10725 10723 10723 10721 10719 10718 10718 10718 10716 10716 10715 10714 10712 10709 10707 10707 10706 10702 10696 10692 10690 10689 10688 10686 10683 10679 10676 10672 10669 10664 10659 10655 10650 10645 10640 10634 10629 10623 10617 10611 10605 10599 10593 10588 10583 10579 10575 10571 10567 10563 10559 10556 10552 10548 10544
10708 10709 10709 10710 10710 10710 10711 10711 10713 10715 10716 10717 10720 10722 10722 10724 10725 10725 10726 10727 10725 10723 10723 10723 10722 10723 10729 10731 10729 10729 10729 10729 10729 10727 10726 10726 10724 10722 10722 10722 10720 10720 10721 10719 10716 10713 10711 10711 10709 10704 10699 10696 10695 10694 10692 10690 10687 10684 10681 10677 10672 10668 10664 10660 10655 10650 10645 10639 10633 10627 10622 10616 10610 10604 10598 10593 10587 10582 10577 10573 10569 10564 10560 10556 10552 10548 10544 10539
10716 10716 10717 10717 10718 10718 10719 10719 10721 10723 10724 10725 10727 10728 10729 10730 10729 10729 10732 10731 10728 10728 10729 10729 10729 10731 10734 10733 10733 10734 10733 10733 10732 10730 10730 10728 10726 10726 10726 10725 10724 10725 10723 10720 10716 10715 10715 10712 10707 10704 10703 10702 10700 10697 10694 10691 10687 10684 10680 10676 10672 10668 10663 10659 10655 10650 10645 10639 10633 10627 10621 10616 10610 10604 10598 10592 10586 10580 10575 10570 10565 10561 10556 10552 10547 10543 10539 10534
10724 10724 10725 10725 10725 10726 10726 10728 10729 10731 10732 10732 10733 10734 10735 10734 10733 10736 10738 10736 10734 10735 10735 10734 10735 10736 10737 10737 10738 10737 10735 10736 10735 10733 10732 10730 10729 10729 10728 10728 10727 10725 10722 10719 10718 10717 10716 10711 10708 10708 10707 10705 10702 10699 10695 10691 10687 10683 10678 10674 10670 10667 10663 10658 10653 10649 10645 10639 10633 10627 10621 10615 10609 10603 10597 10590 10584 10578 10573 10567 10562 10557 10552 10547 10542 10538 10533 10528
10732 10732 10732 10732 10733 10734 10735 10736 10737 10738 10739 10738 10738 10740 10740 10740 10741 10743 10742 10739 10739 10740 10739 10739 10740 10740 10740 10740 10741 10739 10738 10738 10736 10735 10734 10733 10732 10732 10731 10730 10727 10725 10723 10722 10720 10718 10715 10712 10712 10711 10709 10706 10704 10700 10695 10691 10687 10682 10678 10674 10669 10666 10661 10657 10652 10647 10643 10638 10632 10625 10619 10614 10608 10602 10595 10589 10582 10576 10570 10565 10559 10554 10549 10544 10538 10533 10528 10524
10739 10739 10739 10740 10741 10742 10743 10743 10742 10742 10743 10743 10744 10745 10745 10745 10746 10745 10744 10743 10743 10743 10743 10743 10743 10743 10743 10743 10742 10741 10740 10740 10739 10737 10736 10735 10735 10734 10732 10730 10728 10727 10725 10723 10720 10718 10716 10715 10714 10712 10709 10707 10703 10699 10696 10691 10686 10682 10678 10674 10670 10665 10660 10654 10650 10645 10640 10635 10629 10624 10618 10612 10606 10600 10594 10588 10581 10574 10568 10563 10557 10551 10545 10540 10535 10529 10524 10519
10746 10746 10746 10747 10747 10748 10747 10747 10747 10747 10748 10748 10749 10750 10749 10749 10748 10748 10748 10747 10747 10747 10746 10746 10746 10746 10745 10745 10744 10743 10743 10742 10741 10740 10739 10738 10737 10735 10734 10732 10730 10727 10725 10723 10721 10720 10718 10716 10714 10711 10708 10705 10701 10698 10694 10689 10686 10682 10679 10674 10670 10664 10659 10653 10648 10644 10638 10632 10626 10621 10616 10611 10606 10600 10593 10587 10581 10574 10568 10561 10555 10549 10543 10537 10531 10526 10520 10515
10753 10753 10753 10753 10753 10753 10753 10752 10753 10753 10753 10753 10754 10753 10753 10752 10752 10752 10752 10752 10751 10751 10750 10750 10750 10749 10749 10748 10747 10746 10746 10745 10744 10742 10741 10740 10738 10737 10735 10732 10730 10728 10726 10725 10723 10721 10719 10716 10713 10711 10708 10704 10701 10697 10693 10689 10686 10682 10678 10674 10668 10663 10658 10653 10647 10641 10635 10630 10626 10621 10616 10611 10606 10600 10593 10587 10581 10574 10567 10561 10554 10548 10542 10535 10529 10523 10518 10513
10759 10759 10759 10759 10759 10759 10758 10758 10758 10757 10757 10757 10757 10757 10756 10756 10756 10756 10755 10755 10755 10755 10754 10754 10754 10753 10752 10751 10750 10749 10749 10747 10745 10744 10743 10741 10739 10737 10735 10733 10731 10730 10728 10726 10724 10722 10719 10716 10714 10711 10708 10705 10701 10697 10693 10690 10686 10683 10679 10673 10668 10662 10658 10653 10647 10641 10635 10631 10626 10621 10616 10611 10605 10599 10593 10587 10580 10574 10568 10561 10554 10547 10541 10534 10528 10523 10517 10512
10766 10766 10766 10765 10765 10764 10764 10763 10763 10762 10762 10762 10761 10761 10760 10760 10759 10759 10758 10757 10758 10758 10758 10757 10757 10756 10756 10754 10753 10752 10750 10749 10747 10746 10745 10743 10741 10739 10737 10735 10733 10732 10730 10728 10725 10723 10720 10718 10715 10712 10708 10704 10700 10697 10694 10691 10687 10683 10679 10673 10668 10663 10658 10652 10647 10642 10636 10631 10625 10620 10615 10609 10603 10598 10592 10586 10580 10574 10568 10561 10554 10547 10540 10534 10528 10522 10516 10511
10772 10771 10771 10770 10770 10769 10769 10768 10768 10767 10766 10766 10765 10765 10764 10764 10764 10763 10762 10761 10761 10761 10760 10760 10759 10758 10757 10756 10754 10753 10752 10751 10750 10748 10746 10744 10743 10741 10739 10738 10736 10734 10732 10729 10726 10724 10721 10719 10716 10712 10708 10704 10701 10698 10695 10691 10687 10683 10678 10673 10669 10664 10657 10651 10645 10641 10636 10631 10626 10621 10615 10608 10602 10596 10591 10585 10579 10573 10566 10560 10554 10547 10540 10534 10528 10522 10516 10510
10777 10776 10776 10775 10774 10774 10773 10772 10772 10771 10771 10770 10769 10769 10768 10768 10767 10766 10765 10765 10765 10763 10763 10762 10761 10760 10759 10758 10757 10756 10755 10754 10752 10751 10748 10747 10745 10743 10741 10740 10738 10736 10732 10729 10727 10725 10722 10719 10716 10712 10709 10706 10703 10699 10694 10690 10686 10681 10676 10672 10667 10662 10657 10651 10645 10641 10637 10633 10629 10623 10615 10608 10601 10595 10589 10583 10577 10572 10566 10560 10554 10548 10542 10535 10529 10522 10517 10511
10781 10781 10780 10779 10779 10778 10777 10776 10776 10775 10774 10774 10773 10772 10771 10771 10770 10769 10768 10769 10768 10767 10766 10765 10764 10762 10761 10760 10759 10758 10757 10755 10754 10752 10750 10748 10746 10744 10744 10743 10740 10737 10734 10731 10729 10725 10722 10720 10716 10713 10711 10708 10704 10700 10696 10691 10686 10681 10676 10672 10666 10660 10656 10652 10647 10643 10639 10634 10629 10623 10616 10609 10602 10595 10589 10583 10577 10571 10564 10558 10552 10547 10542 10537 10530 10523 10517 10512
10785 10785 10784 10783 10783 10782 10781 10780 10780 10779 10778 10777 10776 10775 10774 10773 10773 10772 10772 10771 10770 10769 10768 10767 10766 10764 10763 10762 10761 10760 10758 10756 10755 10753 10752 10751 10750 10749 10747 10744 10740 10737 10735 10732 10729 10726 10723 10720 10717 10714 10711 10708 10705 10702 10697 10692 10687 10683 10679 10673 10667 10662 10657 10653 10650 10647 10642 10635 10628 10621 10615 10609 10603 10596 10589 10582 10577 10571 10564 10558 10553 10548 10543 10536 10530 10525 10519 10513
10789 10788 10788 10787 10786 10785 10784 10784 10783 10782 10781 10780 10779 10778 10777 10776 10776 10775 10775 10773 10772 10772 10771 10769 10768 10767 10766 10765 10763 10762 10760 10759 10757 10756 10755 10754 10752 10750 10747 10743 10740 10737 10735 10732 10730 10728 10725 10721 10718 10715 10711 10708 10705 10702 10698 10694 10690 10685 10680 10676 10673 10668 10663 10657 10652 10648 10641 10634 10627 10621 10615 10610 10603 10596 10589 10583 10578 10572 10566 10561 10555 10549 10542 10536 10530 10525 10520 10515
10792 10791 10790 10790 10789 10788 10787 10787 10786 10785 10784 10783 10782 10781 10780 10779 10779 10778 10777 10775 10774 10774 10772 10771 10770 10769 10768 10766 10765 10764 10762 10760 10759 10757 10755 10753 10751 10749 10747 10744 10742 10740 10737 10734 10731 10728 10725 10722 10719 10716 10713 10710 10707 10704 10701 10697 10693 10688 10684 10680 10676 10671 10666 10660 10653 10646 10639 10633 10627 10622 10616 10610 10603 10597 10592 10586 10580 10573 10567 10562 10555 10548 10542 10536 10531 10525 10520 10515
10794 10793 10793 10792 10791 10791 10790 10789 10788 10788 10787 10786 10785 10784 10783 10782 10781 10780 10779 10778 10777 10775 10774 10773 10772 10770 10769 10768 10766 10765 10763 10761 10759 10758 10756 10754 10752 10750 10748 10746 10744 10742 10739 10736 10732 10729 10726 10724 10721 10718 10715 10712 10709 10706 10703 10699 10694 10690 10686 10680 10673 10667 10663 10658 10652 10646 10639 10633 10628 10623 10617 10611 10605 10599 10593 10587 10580 10573 10567 10560 10553 10547 10542 10537 10532 10527 10521 10515
10796 10795 10795 10794 10793 10793 10792 10791 10790 10789 10788 10788 10787 10786 10785 10784 10783 10782 10781 10780 10778 10777 10776 10774 10773 10772 10770 10769 10767 10766 10764 10762 10760 10759 10757 10755 10753 10751 10749 10747 10744 10742 10740 10737 10734 10731 10728 10725 10723 10720 10716 10713 10709 10705 10702 10698 10694 10690 10685 10679 10674 10668 10661 10655 10651 10646 10641 10636 10630 10624 10617 10611 10606 10601 10594 10587 10580 10573 10565 10558 10552 10547 10542 10537 10531 10526 10522 10517
10797 10797 10796 10795 10795 10794 10793 10793 10792 10791 10790 10789 10788 10787 10786 10785 10784 10783 10782 10781 10780 10778 10777 10776 10774 10773 10771 10770 10768 10766 10765 10763 10761 10759 10757 10755 10753 10751 10749 10747 10744 10742 10740 10738 10735 10732 10729 10726 10723 10719 10716 10712 10709 10705 10701 10697 10693 10689 10684 10680 10677 10671 10665 10658 10652 10648 10644 10639 10632 10625 10619 10613 10608 10603 10596 10588 10581 10573 10566 10559 10553 10548 10542 10537 10531 10525 10521 10517
10799 10798 10797 10796 10796 10795 10795 10794 10793 10792 10791 10790 10789 10788 10787 10786 10785 10784 10783 10782 10780 10779 10778 10777 10775 10774 10772 10771 10769 10767 10766 10764 10762 10760 10758 10756 10753 10751 10749 10747 10745 10742 10740 10738 10735 10732 10729 10725 10722 10719 10715 10712 10708 10704 10701 10697 10693 10689 10685 10681 10676 10672 10668 10663 10658 10652 10645 10639 10634 10628 10622 10617 10611 10604 10597 10590 10583 10576 10570 10564 10557 10551 10545 10539 10533 10527 10522 10518
10800 10799 10798 10798 10797 10796 10796 10795 10794 10793 10792 10791 10790 10789 10788 10787 10786 10785 10783 10782 10781 10780 10779 10777 10776 10775 10773 10771 10770 10768 10766 10764 10762 10760 10758 10756 10754 10751 10749 10747 10745 10742 10739 10737 10735 10732 10728 10724 10721 10718 10714 10711 10708 10704 10700 10696 10692 10688 10684 10679 10675 10672 10669 10665 10661 10656 10648 10641 10635 10629 10624 10619 10613 10606 10599 10593 10587 10581 10575 10568 10562 10555 10549 10542 10536 10530 10525 10519
10801 10800 10800 10799 10798 10797 10796 10796 10795 10794 10793 10792 10791 10790 10789 10788 10787 10785 10784 10783 10781 10780 10779 10777 10776 10775 10774 10772 10770 10768 10766 10764 10762 10760 10758 10756 10753 10752 10749 10747 10745 10742 10739 10736 10734 10731 10728 10725 10722 10719 10715 10711 10708 10704 10700 10696 10692 10688 10683 10678 10674 10672 10669 10665 10661 10656 10650 10644 10638 10632 10626 10621 10615 10608 10602 10597 10591 10585 10578 10572 10566 10559 10552 10545 10538 10532 10527 10521
10802 10801 10800 10800 10799 10798 10797 10796 10796 10795 10794 10793 10792 10791 10790 10789 10787 10786 10784 10783 10782 10780 10779 10777 10776 10775 10774 10772 10771 10769 10767 10765 10763 10760 10758 10755 10753 10751 10749 10747 10744 10741 10738 10735 10732 10730 10727 10724 10721 10718 10715 10711 10707 10703 10700 10696 10692 10688 10683 10679 10675 10671 10668 10664 10660 10655 10651 10646 10640 10634 10627 10621 10616 10610 10604 10599 10593 10587 10581 10575 10569 10562 10556 10549 10541 10535 10529 10523
10802 10801 10801 10800 10800 10799 10798 10797 10796 10795 10794 10793 10792 10791 10790 10789 10788 10786 10785 10783 10782 10781 10779 10778 10776 10775 10774 10772 10771 10769 10767 10765 10762 10760 10758 10755 10752 10750 10748 10746 10744 10741 10738 10735 10731 10729 10726 10724 10720 10716 10712 10709 10706 10703 10700 10696 10692 10687 10683 10679 10676 10672 10668 10664 10659 10655 10651 10646 10641 10635 10629 10624 10618 10612 10607 10601 10595 10589 10583 10577 10571 10565 10558 10552 10545 10539 10533 10527
10801 10801 10800 10800 10799 10799 10798 10798 10797 10796 10795 10793 10792 10791 10790 10789 10788 10787 10785 10784 10782 10781 10780 10778 10777 10775 10774 10772 10771 10769 10767 10765 10763 10760 10758 10756 10753 10750 10747 10745 10743 10741 10738 10735 10732 10729 10725 10722 10720 10717 10713 10710 10707 10703 10699 10695 10691 10687 10683 10679 10676 10672 10668 10664 10660 10655 10650 10645 10641 10635 10631 10626 10620 10614 10609 10604 10598 10592 10586 10580 10575 10568 10561 10555 10550 10543 10536 10530
10801 10800 10800 10799 10799 10798 10798 10797 10797 10796 10795 10793 10792 10791 10790 10788 10787 10786 10785 10784 10782 10781 10779 10778 10777 10775 10774 10772 10771 10769 10767 10765 10763 10761 10758 10756 10753 10750 10747 10744 10742 10740 10738 10736 10733 10730 10726 10722 10718 10715 10712 10709 10705 10702 10698 10695 10691 10687 10684 10680 10676 10672 10667 10663 10659 10655 10649 10644 10640 10636 10632 10626 10620 10615 10610 10605 10600 10595 10589 10583 10577 10571 10565 10559 10553 10547 10540 10534
10799 10799 10798 10798 10798 10797 10797 10797 10796 10795 10794 10793 10792 10791 10789 10788 10787 10785 10784 10783 10782 10780 10779 10777 10776 10775 10773 10772 10770 10768 10766 10764 10762 10760 10758 10756 10753 10750 10747 10744 10741 10739 10737 10735 10733 10731 10729 10725 10720 10715 10711 10707 10703 10700 10698 10695 10692 10688 10684 10680 10676 10672 10668 10664 10660 10656 10651 10645 10640 10635 10631 10626 10621 10616 10611 10605 10600 10595 10590 10585 10580 10574 10569 10563 10556 10550 10544 10538
10798 10798 10797 10797 10796 10796 10796 10795 10795 10794 10793 10792 10791 10790 10789 10787 10786 10784 10783 10782 10780 10779 10777 10776 10775 10773 10772 10771 10769 10767 10765 10763 10761 10759 10757 10755 10752 10749 10746 10743 10740 10738 10735 10732 10730 10728 10727 10726 10723 10719 10715 10711 10706 10703 10700 10697 10693 10690 10685 10681 10677 10673 10669 10664 10660 10656 10651 10646 10640 10634 10629 10624 10619 10615 10611 10606 10599 10594 10590 10586 10581 10577 10572 10566 10560 10554 10548 10541
10797 10796 10795 10795 10794 10794 10794 10793 10793 10792 10791 10791 10790 10789 10787 10786 10785 10783 10782 10781 10779 10777 10776 10774 10773 10771 10770 10769 10767 10766 10764 10762 10760 10758 10756 10754 10751 10748 10745 10742 10740 10736 10733 10730 10727 10725 10723 10722 10721 10719 10716 10712 10708 10704 10700 10696 10693 10690 10686 10681 10677 10673 10668 10664 10659 10654 10650 10646 10641 10636 10630 10624 10620 10615 10610 10606 10602 10597 10591 10586 10582 10577 10572 10567 10562 10556 10550 10544
10795 10794 10794 10793 10792 10792 10792 10791 10791 10790 10790 10789 10788 10787 10786 10785 10783 10782 10781 10779 10778 10776 10775 10773 10771 10769 10768 10767 10765 10764 10762 10760 10758 10756 10754 10752 10750 10747 10744 10741 10738 10735 10732 10729 10724 10721 10718 10717 10716 10715 10713 10711 10707 10702 10698 10695 10691 10687 10684 10680 10676 10671 10667 10663 10659 10653 10649 10645 10641 10638 10633 10627 10622 10617 10612 10608 10604 10599 10594 10588 10583 10578 10573 10568 10562 10557 10551 10546
10793 10792 10792 10791 10790 10790 10789 10789 10789 10788 10788 10787 10786 10785 10784 10783 10782 10780 10779 10777 10776 10775 10773 10771 10769 10768 10766 10765 10763 10762 10760 10758 10756 10755 10753 10750 10748 10746 10743 10740 10737 10734 10731 10727 10723 10719 10715 10712 10710 10709 10708 10708 10706 10702 10696 10694 10691 10686 10682 10679 10675 10671 10666 10662 10658 10653 10648 10644 10640 10637 10634 10629 10624 10619 10614 10609 10605 10600 10595 10590 10584 10579 10574 10569 10564 10558 10553 10548
10790 10789 10789 10788 10788 10787 10787 10786 10786 10785 10785 10785 10784 10783 10782 10781 10780 10779 10777 10776 10774 10772 10771 10769 10768 10766 10764 10763 10761 10759 10757 10755 10753 10751 10750 10748 10745 10743 10740 10738 10735 10732 10729 10726 10722 10718 10714 10710 10706 10705 10703 10702 10702 10701 10696 10691 10689 10686 10681 10677 10674 10670 10666 10661 10657 10652 10647 10643 10639 10635 10632 10629 10625 10620 10615 10609 10604 10599 10595 10590 10585 10579 10573 10569 10565 10560 10555 10549
10787 10786 10786 10785 10785 10784 10784 10783 10783 10782 10782 10781 10781 10781 10780 10778 10777 10776 10775 10774 10772 10770 10769 10767 10766 10764 10762 10760 10758 10757 10755 10753 10750 10748 10746 10745 10742 10740 10738 10735 10733 10731 10728 10725 10722 10718 10714 10710 10706 10702 10699 10696 10696 10697 10695 10690 10686 10684 10680 10674 10671 10668 10664 10659 10655 10651 10647 10643 10639 10635 10630 10627 10624 10620 10615 10610 10604 10599 10593 10589 10585 10580 10574 10569 10564 10560 10555 10550
10783 10783 10783 10782 10782 10781 10781 10780 10780 10779 10779 10778 10778 10777 10776 10776 10775 10774 10772 10771 10770 10768 10766 10765 10763 10761 10760 10758 10756 10754 10753 10751 10748 10746 10744 10742 10740 10737 10736 10733 10731 10729 10727 10724 10721 10718 10714 10711 10706 10701 10697 10693 10690 10690 10691 10688 10684 10681 10678 10673 10669 10665 10663 10659 10654 10650 10647 10642 10638 10634 10629 10625 10621 10618 10614 10609 10604 10599 10594 10589 10584 10580 10575 10569 10564 10559 10554 10550
10780 10780 10780 10780 10779 10778 10778 10778 10777 10776 10776 10775 10774 10774 10773 10772 10771 10771 10770 10768 10767 10766 10764 10762 10760 10759 10758 10756 10754 10752 10750 10748 10746 10743 10741 10739 10737 10735 10733 10731 10729 10728 10726 10723 10720 10718 10714 10711 10707 10702 10697 10692 10688 10685 10686 10685 10681 10677 10675 10672 10667 10662 10660 10658 10653 10648 10645 10641 10637 10632 10628 10624 10620 10615 10612 10607 10602 10597 10594 10589 10583 10577 10573 10568 10562 10557 10552 10548